Time,TemperatureF,DewpointF,PressureIn,WindDirection,WindDirectionDegrees,WindSpeedMPH,WindSpeedGustMPH,Humidity,HourlyPrecipIn,Conditions,Clouds,dailyrainin,SoftwareType,DateUTC
2013-06-23 00:01:00,70.7,67.9,21.38,West,264,0.0,0.0,91,0.00,CLR,,0.00,WeatherDisplay:10.37,2013-06-23 04:01:00,
2013-06-23 00:02:00,70.7,67.9,21.38,West,264,0.0,0.0,91,0.00,CLR,,0.00,WeatherDisplay:10.37,2013-06-23 04:02:00,
2013-06-23 00:07:00,70.8,68.0,21.38,West,265,2.3,2.3,91,0.00,CLR,,0.00,WeatherDisplay:10.37,2013-06-23 04:07:00,
2013-06-23 00:12:00,70.9,68.1,21.38,West,264,0.0,0.0,91,0.00,CLR,,0.00,WeatherDisplay:10.37,2013-06-23 04:12:00,
2013-06-23 00:17:00,70.8,68.0,21.38,West,264,0.0,0.0,91,0.00,CLR,,0.00,WeatherDisplay:10.37,2013-06-23 04:17:00,
2013-06-23 00:22:00,70.8,68.0,21.38,West,265,0.0,0.0,91,0.00,CLR,,0.00,WeatherDisplay:10.37,2013-06-23 04:22:00,
2013-06-23 00:27:00,70.7,67.9,21.38,West,265,0.0,0.0,91,0.00,CLR,,0.00,WeatherDisplay:10.37,2013-06-23 04:27:00,
2013-06-23 00:32:00,70.6,67.8,21.38,West,264,0.0,0.0,91,0.00,CLR,,0.00,WeatherDisplay:10.37,2013-06-23 04:32:00,
2013-06-23 00:37:00,70.2,67.4,21.38,West,265,0.0,0.0,91,0.00,CLR,,0.00,WeatherDisplay:10.37,2013-06-23 04:37:00,
2013-06-23 00:42:00,69.9,67.2,21.38,West,265,0.0,0.0,91,0.00,CLR,,0.00,WeatherDisplay:10.37,2013-06-23 04:42:00,
2013-06-23 00:47:00,69.7,67.3,21.38,West,265,0.0,0.0,92,0.00,CLR,,0.00,WeatherDisplay:10.37,2013-06-23 04:47:00,
2013-06-23 00:52:00,69.6,67.2,21.38,West,264,0.0,0.0,92,0.00,CLR,,0.00,WeatherDisplay:10.37,2013-06-23 04:52:00,
2013-06-23 00:57:00,69.4,67.0,21.38,West,264,0.0,0.0,92,0.00,CLR,,0.00,WeatherDisplay:10.37,2013-06-23 04:57:00,
2013-06-23 01:02:00,69.3,66.9,21.38,West,265,0.0,0.0,92,0.00,CLR,,0.00,WeatherDisplay:10.37,2013-06-23 05:02:00,
2013-06-23 01:07:00,69.3,66.9,21.38,West,265,0.0,0.0,92,0.00,CLR,,0.00,WeatherDisplay:10.37,2013-06-23 05:07:00,
2013-06-23 01:12:00,69.2,67.1,21.38,West,265,0.0,0.0,93,0.00,CLR,,0.00,WeatherDisplay:10.37,2013-06-23 05:12:00,
2013-06-23 01:17:00,69.2,66.8,21.38,West,265,0.0,0.0,92,0.00,CLR,,0.00,WeatherDisplay:10.37,2013-06-23 05:17:00,
2013-06-23 01:22:00,69.2,66.8,21.38,West,265,0.0,0.0,92,0.00,CLR,,0.00,WeatherDisplay:10.37,2013-06-23 05:22:00,
2013-06-23 01:27:00,69.2,66.8,21.38,West,264,0.0,0.0,92,0.00,CLR,,0.00,WeatherDisplay:10.37,2013-06-23 05:27:00,
2013-06-23 01:32:00,69.1,66.7,21.38,West,265,0.0,0.0,92,0.00,CLR,,0.00,WeatherDisplay:10.37,2013-06-23 05:32:00,
2013-06-23 01:37:00,69.1,66.7,21.38,West,264,0.0,0.0,92,0.00,CLR,,0.00,WeatherDisplay:10.37,2013-06-23 05:37:00,
2013-06-23 01:42:00,69.1,66.7,21.38,West,265,0.0,0.0,92,0.00,CLR,,0.00,WeatherDisplay:10.37,2013-06-23 05:42:00,
2013-06-23 01:47:00,69.0,66.6,21.38,West,265,0.0,0.0,92,0.00,CLR,,0.00,WeatherDisplay:10.37,2013-06-23 05:47:00,
2013-06-23 01:52:00,68.9,66.5,21.38,West,264,0.0,0.0,92,0.00,CLR,,0.00,WeatherDisplay:10.37,2013-06-23 05:52:00,
2013-06-23 01:57:00,68.8,66.7,21.38,West,265,0.0,0.0,93,0.00,CLR,,0.00,WeatherDisplay:10.37,2013-06-23 05:57:00,
2013-06-23 02:01:00,68.8,66.7,21.38,West,264,0.0,0.0,93,0.00,CLR,,0.00,WeatherDisplay:10.37,2013-06-23 06:01:00,
2013-06-23 02:06:00,68.6,66.5,21.38,West,265,0.0,0.0,93,0.00,CLR,,0.00,WeatherDisplay:10.37,2013-06-23 06:06:00,
2013-06-23 02:11:00,68.5,66.4,21.38,West,265,0.0,0.0,93,0.00,CLR,,0.00,WeatherDisplay:10.37,2013-06-23 06:11:00,
2013-06-23 02:16:00,68.4,66.3,21.38,West,265,0.0,0.0,93,0.00,CLR,,0.00,WeatherDisplay:10.37,2013-06-23 06:16:00,
2013-06-23 02:21:00,68.3,66.2,31.40,West,265,0.0,0.0,93,0.00,CLR,,0.00,WeatherDisplay:10.37,2013-06-23 06:21:00,
2013-06-23 02:26:00,68.2,66.1,21.38,West,264,0.0,0.0,93,0.00,CLR,,0.00,WeatherDisplay:10.37,2013-06-23 06:26:00,
2013-06-23 02:31:00,68.1,66.0,21.38,West,264,0.0,0.0,93,0.00,CLR,,0.00,WeatherDisplay:10.37,2013-06-23 06:31:00,
2013-06-23 02:36:00,68.0,65.9,21.38,West,265,0.0,0.0,93,0.00,CLR,,0.00,WeatherDisplay:10.37,2013-06-23 06:36:00,
2013-06-23 02:41:00,68.0,65.9,21.38,West,265,0.0,0.0,93,0.00,CLR,,0.00,WeatherDisplay:10.37,2013-06-23 06:41:00,
2013-06-23 02:46:00,67.9,65.8,21.38,West,264,0.0,0.0,93,0.00,CLR,,0.00,WeatherDisplay:10.37,2013-06-23 06:46:00,
2013-06-23 02:51:00,67.9,65.8,21.38,West,265,0.0,0.0,93,0.00,CLR,,0.00,WeatherDisplay:10.37,2013-06-23 06:51:00,
2013-06-23 02:56:00,67.8,65.7,21.38,West,265,0.0,0.0,93,0.00,CLR,,0.00,WeatherDisplay:10.37,2013-06-23 06:56:00,
2013-06-23 03:01:00,67.7,65.6,21.38,West,265,0.0,0.0,93,0.00,CLR,,0.00,WeatherDisplay:10.37,2013-06-23 07:01:00,
2013-06-23 03:06:00,67.6,65.5,21.38,West,265,0.0,0.0,93,0.00,CLR,,0.00,WeatherDisplay:10.37,2013-06-23 07:06:00,
2013-06-23 03:11:00,67.5,65.4,21.38,West,264,0.0,0.0,93,0.00,CLR,,0.00,WeatherDisplay:10.37,2013-06-23 07:11:00,
2013-06-23 03:16:00,67.4,65.3,21.38,West,265,0.0,0.0,93,0.00,CLR,,0.00,WeatherDisplay:10.37,2013-06-23 07:16:00,
2013-06-23 03:21:00,67.3,65.2,21.38,West,265,0.0,0.0,93,0.00,CLR,,0.00,WeatherDisplay:10.37,2013-06-23 07:21:00,
2013-06-23 03:26:00,67.2,65.1,21.38,West,265,0.0,0.0,93,0.00,CLR,,0.00,WeatherDisplay:10.37,2013-06-23 07:26:00,
2013-06-23 03:31:00,67.1,65.0,21.38,West,265,0.0,0.0,93,0.00,CLR,,0.00,WeatherDisplay:10.37,2013-06-23 07:31:00,
2013-06-23 03:36:00,67.0,64.9,21.38,West,265,0.0,0.0,93,0.00,CLR,,0.00,WeatherDisplay:10.37,2013-06-23 07:36:00,
2013-06-23 03:41:00,66.9,65.1,21.38,West,264,0.0,0.0,94,0.00,CLR,,0.00,WeatherDisplay:10.37,2013-06-23 07:41:00,
2013-06-23 03:46:00,66.9,65.1,21.38,West,265,0.0,0.0,94,0.00,CLR,,0.00,WeatherDisplay:10.37,2013-06-23 07:46:00,
2013-06-23 03:51:00,66.8,65.0,21.38,West,265,0.0,0.0,94,0.00,CLR,,0.00,WeatherDisplay:10.37,2013-06-23 07:51:00,
2013-06-23 03:56:00,66.8,65.0,21.38,West,265,0.0,0.0,94,0.00,CLR,,0.00,WeatherDisplay:10.37,2013-06-23 07:56:00,
2013-06-23 04:01:00,66.8,65.0,21.38,West,265,0.0,0.0,94,0.00,CLR,,0.00,WeatherDisplay:10.37,2013-06-23 08:01:00,
2013-06-23 04:06:00,66.7,64.9,21.38,West,264,0.0,0.0,94,0.00,CLR,,0.00,WeatherDisplay:10.37,2013-06-23 08:06:00,
2013-06-23 04:11:00,66.5,64.7,21.38,West,264,0.0,0.0,94,0.00,CLR,,0.00,WeatherDisplay:10.37,2013-06-23 08:11:00,
2013-06-23 04:16:00,66.5,64.7,21.38,West,265,0.0,0.0,94,0.00,CLR,,0.00,WeatherDisplay:10.37,2013-06-23 08:16:00,
2013-06-23 04:21:00,66.4,64.6,21.38,West,264,0.0,0.0,94,0.00,CLR,,0.00,WeatherDisplay:10.37,2013-06-23 08:21:00,
2013-06-23 04:26:00,66.3,64.5,21.38,West,265,0.0,0.0,94,0.00,CLR,,0.00,WeatherDisplay:10.37,2013-06-23 08:26:00,
2013-06-23 04:31:00,66.3,64.5,21.38,West,265,0.0,0.0,94,0.00,CLR,,0.00,WeatherDisplay:10.37,2013-06-23 08:31:00,
2013-06-23 04:36:00,66.4,64.6,21.38,West,265,0.0,0.0,94,0.00,CLR,,0.00,WeatherDisplay:10.37,2013-06-23 08:36:00,
2013-06-23 04:41:00,66.3,64.5,21.38,West,264,0.0,0.0,94,0.00,CLR,,0.00,WeatherDisplay:10.37,2013-06-23 08:41:00,
2013-06-23 04:46:00,66.2,64.4,21.38,West,265,0.0,0.0,94,0.00,CLR,,0.00,WeatherDisplay:10.37,2013-06-23 08:46:00,
2013-06-23 04:51:00,66.1,64.3,21.38,West,264,0.0,0.0,94,0.00,CLR,,0.00,WeatherDisplay:10.37,2013-06-23 08:51:00,
2013-06-23 04:56:00,66.1,64.3,21.38,West,264,0.0,0.0,94,0.00,CLR,,0.00,WeatherDisplay:10.37,2013-06-23 08:56:00,
2013-06-23 05:01:00,66.1,64.3,21.38,West,265,0.0,0.0,94,0.00,CLR,,0.00,WeatherDisplay:10.37,2013-06-23 09:01:00,
2013-06-23 05:06:00,66.0,64.2,21.38,West,264,0.0,0.0,94,0.00,CLR,,0.00,WeatherDisplay:10.37,2013-06-23 09:06:00,
2013-06-23 05:11:00,66.0,64.2,21.38,West,265,0.0,0.0,94,0.00,CLR,,0.00,WeatherDisplay:10.37,2013-06-23 09:11:00,
2013-06-23 05:16:00,65.8,64.0,21.38,West,265,0.0,0.0,94,0.00,CLR,,0.00,WeatherDisplay:10.37,2013-06-23 09:16:00,
2013-06-23 05:21:00,65.7,63.9,21.38,West,264,0.0,0.0,94,0.00,CLR,,0.00,WeatherDisplay:10.37,2013-06-23 09:21:00,
2013-06-23 05:26:00,65.6,63.8,21.38,West,265,0.0,0.0,94,0.00,CLR,,0.00,WeatherDisplay:10.37,2013-06-23 09:26:00,
2013-06-23 05:31:00,65.5,63.7,21.38,West,265,0.0,0.0,94,0.00,CLR,,0.00,WeatherDisplay:10.37,2013-06-23 09:31:00,
2013-06-23 05:36:00,65.4,63.6,21.38,West,264,0.0,0.0,94,0.00,CLR,,0.00,WeatherDisplay:10.37,2013-06-23 09:36:00,
2013-06-23 05:41:00,65.3,63.5,21.38,West,265,0.0,0.0,94,0.00,CLR,,0.00,WeatherDisplay:10.37,2013-06-23 09:41:00,
2013-06-23 05:46:00,65.2,63.4,21.38,West,264,0.0,0.0,94,0.00,CLR,,0.00,WeatherDisplay:10.37,2013-06-23 09:46:00,
2013-06-23 05:51:00,65.2,63.4,21.38,West,265,0.0,0.0,94,0.00,CLR,,0.00,WeatherDisplay:10.37,2013-06-23 09:51:00,
2013-06-23 05:56:00,65.2,63.4,21.38,West,265,0.0,0.0,94,0.00,CLR,,0.00,WeatherDisplay:10.37,2013-06-23 09:56:00,
2013-06-23 06:01:00,65.2,63.4,21.38,West,265,0.0,0.0,94,0.00,CLR,,0.00,WeatherDisplay:10.37,2013-06-23 10:01:00,
2013-06-23 06:06:00,65.1,63.3,21.38,West,265,0.0,0.0,94,0.00,CLR,,0.00,WeatherDisplay:10.37,2013-06-23 10:06:00,
2013-06-23 06:11:00,65.1,63.3,21.38,West,265,0.0,0.0,94,0.00,CLR,,0.00,WeatherDisplay:10.37,2013-06-23 10:11:00,
2013-06-23 06:16:00,65.0,63.2,21.38,West,264,0.0,0.0,94,0.00,CLR,,0.00,WeatherDisplay:10.37,2013-06-23 10:16:00,
2013-06-23 06:21:00,65.0,63.2,21.38,West,265,0.0,0.0,94,0.00,CLR,,0.00,WeatherDisplay:10.37,2013-06-23 10:21:00,
2013-06-23 06:26:00,65.0,63.2,21.38,West,264,0.0,0.0,94,0.00,CLR,,0.00,WeatherDisplay:10.37,2013-06-23 10:26:00,
2013-06-23 06:31:00,64.9,63.1,21.38,West,265,0.0,0.0,94,0.00,CLR,,0.00,WeatherDisplay:10.37,2013-06-23 10:31:00,
2013-06-23 06:36:00,64.8,63.0,21.38,West,265,0.0,0.0,94,0.00,CLR,,0.00,WeatherDisplay:10.37,2013-06-23 10:36:00,
2013-06-23 06:41:00,64.9,63.1,21.38,West,265,0.0,0.0,94,0.00,CLR,,0.00,WeatherDisplay:10.37,2013-06-23 10:41:00,
2013-06-23 06:46:00,65.4,63.6,21.38,West,265,0.0,0.0,94,0.00,CLR,,0.00,WeatherDisplay:10.37,2013-06-23 10:46:00,
2013-06-23 06:51:00,65.8,64.0,21.38,West,265,0.0,0.0,94,0.00,CLR,,0.00,WeatherDisplay:10.37,2013-06-23 10:51:00,
2013-06-23 06:56:00,66.2,64.4,21.38,West,264,0.0,0.0,94,0.00,CLR,,0.00,WeatherDisplay:10.37,2013-06-23 10:56:00,
2013-06-23 07:01:00,66.7,64.9,21.38,West,265,0.0,0.0,94,0.00,CLR,,0.00,WeatherDisplay:10.37,2013-06-23 11:01:00,
2013-06-23 07:06:00,67.3,65.5,21.38,West,265,0.0,0.0,94,0.00,CLR,,0.00,WeatherDisplay:10.37,2013-06-23 11:06:00,
2013-06-23 07:11:00,67.7,65.9,21.38,West,265,0.0,0.0,94,0.00,CLR,,0.00,WeatherDisplay:10.37,2013-06-23 11:11:00,
2013-06-23 07:17:00,68.0,66.2,21.38,West,265,0.0,0.0,94,0.00,CLR,,0.00,WeatherDisplay:10.37,2013-06-23 11:17:00,
2013-06-23 07:22:00,68.3,66.5,21.38,West,265,0.0,0.0,94,0.00,CLR,,0.00,WeatherDisplay:10.37,2013-06-23 11:22:00,
2013-06-23 07:27:00,68.3,66.2,21.38,West,265,0.0,0.0,93,0.00,CLR,,0.00,WeatherDisplay:10.37,2013-06-23 11:27:00,
2013-06-23 07:32:00,68.4,66.3,21.38,West,265,0.0,0.0,93,0.00,CLR,,0.00,WeatherDisplay:10.37,2013-06-23 11:32:00,
2013-06-23 07:37:00,68.5,66.4,21.38,West,265,0.0,0.0,93,0.00,CLR,,0.00,WeatherDisplay:10.37,2013-06-23 11:37:00,
2013-06-23 07:42:00,68.4,66.0,21.38,West,264,0.0,0.0,92,0.00,CLR,,0.00,WeatherDisplay:10.37,2013-06-23 11:42:00,
2013-06-23 07:47:00,68.2,65.8,21.38,West,265,0.0,0.0,92,0.00,CLR,,0.00,WeatherDisplay:10.37,2013-06-23 11:47:00,
2013-06-23 07:52:00,68.2,65.8,21.38,West,265,0.0,0.0,92,0.00,CLR,,0.00,WeatherDisplay:10.37,2013-06-23 11:52:00,
2013-06-23 07:57:00,68.4,66.3,21.38,West,265,0.0,0.0,93,0.00,CLR,,0.00,WeatherDisplay:10.37,2013-06-23 11:57:00,
2013-06-23 08:02:00,68.6,66.5,21.38,West,265,0.0,0.0,93,0.00,CLR,,0.00,WeatherDisplay:10.37,2013-06-23 12:02:00,
2013-06-23 08:07:00,68.9,66.8,21.38,West,265,0.0,0.0,93,0.00,CLR,,0.00,WeatherDisplay:10.37,2013-06-23 12:07:00,
2013-06-23 08:12:00,69.2,66.8,21.38,West,265,0.0,0.0,92,0.00,CLR,,0.00,WeatherDisplay:10.37,2013-06-23 12:12:00,
2013-06-23 08:17:00,69.6,67.2,21.38,West,265,0.0,0.0,92,0.00,CLR,,0.00,WeatherDisplay:10.37,2013-06-23 12:17:00,
2013-06-23 08:22:00,70.0,67.6,21.38,West,264,0.0,0.0,92,0.00,CLR,,0.00,WeatherDisplay:10.37,2013-06-23 12:22:00,
2013-06-23 08:27:00,70.5,67.7,21.38,West,265,0.0,0.0,91,0.00,CLR,,0.00,WeatherDisplay:10.37,2013-06-23 12:27:00,
2013-06-23 08:32:00,70.9,67.8,21.38,West,265,0.0,0.0,90,0.00,CLR,,0.00,WeatherDisplay:10.37,2013-06-23 12:32:00,
2013-06-23 08:37:00,71.3,68.2,21.38,West,265,0.0,0.0,90,0.00,CLR,,0.00,WeatherDisplay:10.37,2013-06-23 12:37:00,
2013-06-23 08:42:00,71.8,68.1,21.38,West,265,0.0,0.0,88,0.00,CLR,,0.00,WeatherDisplay:10.37,2013-06-23 12:42:00,
2013-06-23 08:47:00,72.2,68.1,21.38,West,265,0.0,0.0,87,0.00,CLR,,0.00,WeatherDisplay:10.37,2013-06-23 12:47:00,
2013-06-23 08:52:00,72.4,67.3,21.38,West,264,1.2,0.0,84,0.00,CLR,,0.00,WeatherDisplay:10.37,2013-06-23 12:52:00,
2013-06-23 08:57:00,72.5,67.7,21.38,West,265,0.0,0.0,85,0.00,CLR,,0.00,WeatherDisplay:10.37,2013-06-23 12:57:00,
2013-06-23 09:02:00,72.7,67.2,21.38,West,264,1.2,0.0,83,0.00,CLR,,0.00,WeatherDisplay:10.37,2013-06-23 13:02:00,
2013-06-23 09:07:00,72.8,67.3,21.38,West,265,0.0,0.0,83,0.00,CLR,,0.00,WeatherDisplay:10.37,2013-06-23 13:07:00,
2013-06-23 09:12:00,73.0,67.5,21.38,West,265,0.0,0.0,83,0.00,CLR,,0.00,WeatherDisplay:10.37,2013-06-23 13:12:00,
2013-06-23 09:17:00,73.1,67.6,21.38,West,265,0.0,0.0,83,0.00,CLR,,0.00,WeatherDisplay:10.37,2013-06-23 13:17:00,
2013-06-23 09:22:00,73.4,67.6,21.38,West,264,0.0,0.0,82,0.00,CLR,,0.00,WeatherDisplay:10.37,2013-06-23 13:22:00,
2013-06-23 09:27:00,73.8,68.0,21.38,West,265,0.0,0.0,82,0.00,CLR,,0.00,WeatherDisplay:10.37,2013-06-23 13:27:00,
2013-06-23 09:32:00,74.3,68.1,21.38,West,264,0.0,0.0,81,0.00,CLR,,0.00,WeatherDisplay:10.37,2013-06-23 13:32:00,
2013-06-23 09:37:00,74.4,67.8,21.38,West,265,0.0,0.0,80,0.00,CLR,,0.00,WeatherDisplay:10.37,2013-06-23 13:37:00,
2013-06-23 09:42:00,74.5,68.3,21.38,West,265,1.2,0.0,81,0.00,CLR,,0.00,WeatherDisplay:10.37,2013-06-23 13:42:00,
2013-06-23 09:47:00,74.6,68.0,21.38,West,265,0.0,0.0,80,0.00,CLR,,0.00,WeatherDisplay:10.37,2013-06-23 13:47:00,
2013-06-23 09:52:00,74.9,68.3,21.38,West,264,0.0,0.0,80,0.00,CLR,,0.00,WeatherDisplay:10.37,2013-06-23 13:52:00,
2013-06-23 09:57:00,74.6,68.0,21.38,West,265,3.5,3.5,80,0.00,CLR,,0.00,WeatherDisplay:10.37,2013-06-23 13:57:00,
2013-06-23 10:03:00,74.8,68.2,21.38,West,265,0.0,0.0,80,0.00,CLR,,0.00,WeatherDisplay:10.37,2013-06-23 14:03:00,
2013-06-23 10:08:00,75.2,68.6,21.38,West,264,0.0,0.0,80,0.00,CLR,,0.00,WeatherDisplay:10.37,2013-06-23 14:08:00,
2013-06-23 10:13:00,75.6,69.0,21.38,West,265,2.3,2.3,80,0.00,CLR,,0.00,WeatherDisplay:10.37,2013-06-23 14:13:00,
2013-06-23 10:18:00,76.6,69.6,21.38,West,264,0.0,0.0,79,0.00,CLR,,0.00,WeatherDisplay:10.37,2013-06-23 14:18:00,
2013-06-23 10:23:00,78.3,70.1,21.38,West,265,0.0,0.0,76,0.00,CLR,,0.00,WeatherDisplay:10.37,2013-06-23 14:23:00,
2013-06-23 10:28:00,79.6,70.2,21.38,WSW,244,6.9,6.9,73,0.00,CLR,,0.00,WeatherDisplay:10.37,2013-06-23 14:28:00,
2013-06-23 10:33:00,80.2,70.4,21.38,SW,221,8.0,8.0,72,0.00,CLR,,0.00,WeatherDisplay:10.37,2013-06-23 14:33:00,
2013-06-23 10:38:00,80.1,69.8,21.38,SW,227,4.6,4.6,71,0.00,CLR,,0.00,WeatherDisplay:10.37,2013-06-23 14:38:00,
2013-06-23 10:43:00,79.6,69.8,21.38,SSW,212,8.1,8.1,72,0.00,CLR,,0.00,WeatherDisplay:10.37,2013-06-23 14:43:00,
2013-06-23 10:48:00,78.1,69.1,21.38,SW,236,4.6,4.6,74,0.00,CLR,,0.00,WeatherDisplay:10.37,2013-06-23 14:48:00,
2013-06-23 10:53:00,77.9,69.3,21.38,SW,235,5.8,5.8,75,0.00,CLR,,0.00,WeatherDisplay:10.37,2013-06-23 14:53:00,
2013-06-23 10:58:00,77.6,69.0,21.38,SSW,202,4.6,4.6,75,0.00,CLR,,0.00,WeatherDisplay:10.37,2013-06-23 14:58:00,
2013-06-23 11:03:00,77.2,69.0,21.38,SW,236,4.6,4.6,76,0.00,CLR,,0.00,WeatherDisplay:10.37,2013-06-23 15:03:00,
2013-06-23 11:08:00,77.4,69.2,21.38,WSW,239,4.6,4.6,76,0.00,CLR,,0.00,WeatherDisplay:10.37,2013-06-23 15:08:00,
2013-06-23 11:13:00,77.6,69.0,21.38,WSW,238,3.5,3.5,75,0.00,CLR,,0.00,WeatherDisplay:10.37,2013-06-23 15:13:00,
2013-06-23 11:18:00,78.2,70.0,21.38,WSW,239,0.0,0.0,76,0.00,CLR,,0.00,WeatherDisplay:10.37,2013-06-23 15:18:00,
2013-06-23 11:23:00,78.7,70.5,21.38,WSW,239,0.0,0.0,76,0.00,CLR,,0.00,WeatherDisplay:10.37,2013-06-23 15:23:00,
2013-06-23 11:28:00,79.7,70.7,21.38,WSW,238,0.0,0.0,74,0.00,CLR,,0.00,WeatherDisplay:10.37,2013-06-23 15:28:00,
2013-06-23 11:34:00,80.7,71.6,21.38,SW,232,0.0,0.0,74,0.00,CLR,,0.00,WeatherDisplay:10.37,2013-06-23 15:34:00,
2013-06-23 11:39:00,81.5,71.2,21.38,SW,232,0.0,0.0,71,0.00,CLR,,0.00,WeatherDisplay:10.37,2013-06-23 15:39:00,
2013-06-23 11:44:00,81.8,71.1,21.38,SW,229,0.0,0.0,70,0.00,CLR,,0.00,WeatherDisplay:10.37,2013-06-23 15:44:00,
2013-06-23 11:49:00,82.2,71.0,21.38,SW,229,0.0,0.0,69,0.00,CLR,,0.00,WeatherDisplay:10.37,2013-06-23 15:49:00,
2013-06-23 11:54:00,83.6,72.3,21.38,SW,227,1.2,0.0,69,0.00,CLR,,0.00,WeatherDisplay:10.37,2013-06-23 15:54:00,
2013-06-23 11:59:00,84.8,72.2,21.38,SW,226,0.0,0.0,66,0.00,CLR,,0.00,WeatherDisplay:10.37,2013-06-23 15:59:00,
2013-06-23 12:04:00,85.6,72.9,21.38,SW,227,0.0,0.0,66,0.00,CLR,,0.00,WeatherDisplay:10.37,2013-06-23 16:04:00,
2013-06-23 12:09:00,86.6,73.0,21.38,SW,227,0.0,0.0,64,0.00,CLR,,0.00,WeatherDisplay:10.37,2013-06-23 16:09:00,
2013-06-23 12:14:00,87.2,73.5,21.38,SW,226,0.0,0.0,64,0.00,CLR,,0.00,WeatherDisplay:10.37,2013-06-23 16:14:00,
2013-06-23 12:19:00,88.4,74.2,21.38,SW,227,0.0,0.0,63,0.00,CLR,,0.00,WeatherDisplay:10.37,2013-06-23 16:19:00,
2013-06-23 12:24:00,89.1,74.4,21.38,SW,227,0.0,0.0,62,0.00,CLR,,0.00,WeatherDisplay:10.37,2013-06-23 16:24:00,
2013-06-23 12:29:00,89.6,73.9,21.38,SW,226,0.0,0.0,60,0.00,CLR,,0.00,WeatherDisplay:10.37,2013-06-23 16:29:00,
2013-06-23 12:35:00,89.4,74.2,21.38,SW,226,0.0,0.0,61,0.00,CLR,,0.00,WeatherDisplay:10.37,2013-06-23 16:35:00,
2013-06-23 12:40:00,89.2,74.0,21.38,West,280,1.2,1.2,61,0.00,CLR,,0.00,WeatherDisplay:10.37,2013-06-23 16:40:00,
2013-06-23 12:45:00,90.1,73.8,21.38,WNW,291,1.2,0.0,59,0.00,CLR,,0.00,WeatherDisplay:10.37,2013-06-23 16:45:00,
2013-06-23 12:50:00,90.0,74.7,21.38,WNW,286,4.6,4.6,61,0.00,CLR,,0.00,WeatherDisplay:10.37,2013-06-23 16:50:00,
2013-06-23 12:55:00,91.1,74.8,21.38,WNW,286,0.0,0.0,59,0.00,CLR,,0.00,WeatherDisplay:10.37,2013-06-23 16:55:00,
2013-06-23 12:57:00,91.3,75.0,21.38,WNW,286,0.0,0.0,59,0.00,CLR,,0.00,WeatherDisplay:10.37,2013-06-23 16:57:00,
2013-06-23 12:58:00,91.4,75.1,21.38,WNW,286,0.0,0.0,59,0.00,CLR,,0.00,WeatherDisplay:10.37,2013-06-23 16:58:00,
2013-06-23 13:03:00,91.3,74.4,21.38,WNW,286,0.0,0.0,58,0.00,CLR,,0.00,WeatherDisplay:10.37,2013-06-23 17:03:00,
2013-06-23 13:08:00,90.0,74.2,21.38,East,79,0.0,0.0,60,0.00,CLR,,0.00,WeatherDisplay:10.37,2013-06-23 17:08:00,
2013-06-23 13:13:00,89.6,73.9,21.38,South,179,4.6,4.6,60,0.00,CLR,,0.00,WeatherDisplay:10.37,2013-06-23 17:13:00,
2013-06-23 13:18:00,90.1,74.8,21.38,West,279,3.5,3.5,61,0.00,CLR,,0.00,WeatherDisplay:10.37,2013-06-23 17:18:00,
2013-06-23 13:23:00,90.6,74.3,21.38,ENE,61,5.0,5.0,59,0.00,CLR,,0.00,WeatherDisplay:10.37,2013-06-23 17:23:00,
2013-06-23 13:28:00,89.1,72.4,21.38,NE,51,5.8,5.8,58,0.00,CLR,,0.00,WeatherDisplay:10.37,2013-06-23 17:28:00,
2013-06-23 13:33:00,86.8,72.2,21.38,SW,216,5.0,5.0,62,0.00,CLR,,0.00,WeatherDisplay:10.37,2013-06-23 17:33:00,
2013-06-23 13:38:00,88.1,71.5,21.38,ENE,66,3.5,3.5,58,0.00,CLR,,0.00,WeatherDisplay:10.37,2013-06-23 17:38:00,
2013-06-23 13:43:00,88.6,72.4,21.38,SSW,213,0.0,0.2,59,0.00,CLR,,0.00,WeatherDisplay:10.37,2013-06-23 17:43:00,
2013-06-23 13:48:00,89.6,71.3,21.38,East,83,1.2,0.0,55,0.00,CLR,,0.00,WeatherDisplay:10.37,2013-06-23 17:48:00,
2013-06-23 13:53:00,89.7,73.0,21.38,WSW,238,3.5,3.5,58,0.00,CLR,,0.00,WeatherDisplay:10.37,2013-06-23 17:53:00,
2013-06-23 13:58:00,91.4,73.5,21.38,West,277,6.9,6.9,56,0.00,CLR,,0.00,WeatherDisplay:10.37,2013-06-23 17:58:00,
2013-06-23 14:03:00,93.3,73.6,21.38,West,277,5.0,5.0,53,0.00,CLR,,0.00,WeatherDisplay:10.37,2013-06-23 18:03:00,
2013-06-23 14:08:00,94.5,74.2,21.38,SW,233,5.8,5.8,52,0.00,CLR,,0.00,WeatherDisplay:10.37,2013-06-23 18:08:00,
2013-06-23 14:13:00,94.8,75.0,21.38,SSW,194,0.0,0.1,53,0.00,CLR,,0.00,WeatherDisplay:10.37,2013-06-23 18:13:00,
2013-06-23 14:18:00,93.1,71.7,21.38,South,182,0.0,0.0,50,0.00,CLR,,0.00,WeatherDisplay:10.37,2013-06-23 18:18:00,
2013-06-23 14:23:00,92.2,73.7,21.38,WNW,287,4.6,4.6,55,0.00,CLR,,0.00,WeatherDisplay:10.37,2013-06-23 18:23:00,
2013-06-23 14:28:00,91.9,73.4,21.38,West,280,5.8,5.8,55,0.00,CLR,,0.00,WeatherDisplay:10.37,2013-06-23 18:28:00,
2013-06-23 14:33:00,92.1,74.1,21.38,West,280,7.0,7.0,56,0.00,CLR,,0.00,WeatherDisplay:10.37,2013-06-23 18:33:00,
2013-06-23 14:38:00,92.6,73.5,21.38,West,276,3.5,3.5,54,0.00,CLR,,0.00,WeatherDisplay:10.37,2013-06-23 18:38:00,
2013-06-23 14:43:00,92.6,73.0,21.38,WNW,295,1.2,0.0,53,0.00,CLR,,0.00,WeatherDisplay:10.37,2013-06-23 18:43:00,
2013-06-23 14:48:00,92.7,72.5,21.38,WNW,291,0.0,0.0,52,0.00,CLR,,0.00,WeatherDisplay:10.37,2013-06-23 18:48:00,
2013-06-23 14:53:00,92.8,73.7,21.38,WNW,286,1.2,1.2,54,0.00,CLR,,0.00,WeatherDisplay:10.37,2013-06-23 18:53:00,
2013-06-23 14:58:00,93.3,73.0,21.38,WNW,283,6.0,6.0,52,0.00,CLR,,0.00,WeatherDisplay:10.37,2013-06-23 18:58:00,
2013-06-23 15:03:00,93.8,73.5,21.38,West,281,4.0,4.0,52,0.00,CLR,,0.00,WeatherDisplay:10.37,2013-06-23 19:03:00,
2013-06-23 15:08:00,94.0,72.5,21.38,West,273,5.8,5.8,50,0.00,CLR,,0.00,WeatherDisplay:10.37,2013-06-23 19:08:00,
2013-06-23 15:13:00,93.9,72.4,21.38,West,277,10.4,10.4,50,0.00,CLR,,0.00,WeatherDisplay:10.37,2013-06-23 19:13:00,
2013-06-23 15:18:00,93.9,73.0,21.38,WNW,282,0.0,0.0,51,0.00,CLR,,0.00,WeatherDisplay:10.37,2013-06-23 19:18:00,
2013-06-23 15:23:00,93.5,72.1,21.38,WNW,283,8.1,8.1,50,0.00,CLR,,0.00,WeatherDisplay:10.37,2013-06-23 19:23:00,
2013-06-23 15:28:00,93.5,71.5,21.38,West,277,8.1,8.1,49,0.00,CLR,,0.00,WeatherDisplay:10.37,2013-06-23 19:28:00,
2013-06-23 15:33:00,94.0,71.9,21.38,WSW,242,6.9,6.9,49,0.00,CLR,,0.00,WeatherDisplay:10.37,2013-06-23 19:33:00,
2013-06-23 15:38:00,94.3,71.6,21.38,SW,225,4.6,4.6,48,0.00,CLR,,0.00,WeatherDisplay:10.37,2013-06-23 19:38:00,
2013-06-23 15:43:00,92.8,70.8,21.38,WSW,244,4.6,4.6,49,0.00,CLR,,0.00,WeatherDisplay:10.37,2013-06-23 19:43:00,
2013-06-23 15:48:00,92.8,70.8,21.38,WNW,282,3.5,3.5,49,0.00,CLR,,0.00,WeatherDisplay:10.37,2013-06-23 19:48:00,
2013-06-23 15:53:00,93.0,70.4,21.38,WSW,254,9.2,9.2,48,0.00,CLR,,0.00,WeatherDisplay:10.37,2013-06-23 19:53:00,
2013-06-23 15:58:00,93.1,69.3,21.38,NW,304,9.2,9.2,46,0.00,CLR,,0.00,WeatherDisplay:10.37,2013-06-23 19:58:00,
2013-06-23 16:03:00,93.1,69.9,21.38,West,275,2.3,3.0,47,0.00,CLR,,0.00,WeatherDisplay:10.37,2013-06-23 20:03:00,
2013-06-23 16:08:00,93.2,70.6,21.38,SW,219,6.9,6.9,48,0.00,CLR,,0.00,WeatherDisplay:10.37,2013-06-23 20:08:00,
2013-06-23 16:13:00,92.4,69.9,21.38,South,171,0.0,0.1,48,0.00,CLR,,0.00,WeatherDisplay:10.37,2013-06-23 20:13:00,
2013-06-23 16:19:00,91.9,70.0,21.38,SSW,199,4.6,4.6,49,0.00,CLR,,0.00,WeatherDisplay:10.37,2013-06-23 20:19:00,
2013-06-23 16:24:00,91.4,70.1,21.38,SW,218,5.8,5.8,50,0.00,CLR,,0.00,WeatherDisplay:10.37,2013-06-23 20:24:00,
2013-06-23 16:29:00,91.7,69.8,21.38,SW,214,5.8,5.8,49,0.00,CLR,,0.00,WeatherDisplay:10.37,2013-06-23 20:29:00,
2013-06-23 16:34:00,91.7,71.0,21.38,West,274,3.5,3.5,51,0.00,CLR,,0.00,WeatherDisplay:10.37,2013-06-23 20:34:00,
2013-06-23 16:39:00,91.6,70.3,21.38,SSW,202,0.0,0.0,50,0.00,CLR,,0.00,WeatherDisplay:10.37,2013-06-23 20:39:00,
2013-06-23 16:44:00,91.4,70.7,21.38,WNW,298,2.3,2.3,51,0.00,CLR,,0.00,WeatherDisplay:10.37,2013-06-23 20:44:00,
2013-06-23 16:49:00,91.8,71.7,21.38,WNW,291,9.2,9.2,52,0.00,CLR,,0.00,WeatherDisplay:10.37,2013-06-23 20:49:00,
2013-06-23 16:54:00,92.5,71.7,21.38,West,277,2.3,2.3,51,0.00,CLR,,0.00,WeatherDisplay:10.37,2013-06-23 20:54:00,
2013-06-23 16:59:00,92.9,72.1,21.38,West,275,9.2,9.2,51,0.00,CLR,,0.00,WeatherDisplay:10.37,2013-06-23 20:59:00,
2013-06-23 17:04:00,93.0,72.2,21.38,WNW,287,5.0,5.0,51,0.00,CLR,,0.00,WeatherDisplay:10.37,2013-06-23 21:04:00,
2013-06-23 17:09:00,93.0,71.0,21.38,West,275,2.3,2.3,49,0.00,CLR,,0.00,WeatherDisplay:10.37,2013-06-23 21:09:00,
2013-06-23 17:14:00,92.8,70.8,21.38,West,273,0.0,0.0,49,0.00,CLR,,0.00,WeatherDisplay:10.37,2013-06-23 21:14:00,
2013-06-23 17:19:00,92.3,71.0,21.38,WSW,250,4.6,4.6,50,0.00,CLR,,0.00,WeatherDisplay:10.37,2013-06-23 21:19:00,
2013-06-23 17:24:00,91.8,71.1,31.40,SW,229,5.8,5.8,51,0.00,CLR,,0.00,WeatherDisplay:10.37,2013-06-23 21:24:00,
2013-06-23 17:29:00,91.8,71.7,21.38,West,275,4.0,4.0,52,0.00,CLR,,0.00,WeatherDisplay:10.37,2013-06-23 21:29:00,
2013-06-23 17:34:00,91.9,71.8,21.38,West,280,6.9,6.9,52,0.00,CLR,,0.00,WeatherDisplay:10.37,2013-06-23 21:34:00,
2013-06-23 17:39:00,91.9,71.2,21.38,West,280,5.8,5.8,51,0.00,CLR,,0.00,WeatherDisplay:10.37,2013-06-23 21:39:00,
2013-06-23 17:44:00,91.8,70.5,21.38,SW,229,6.9,6.9,50,0.00,CLR,,0.00,WeatherDisplay:10.37,2013-06-23 21:44:00,
2013-06-23 17:49:00,91.1,69.9,21.38,West,261,3.5,3.5,50,0.00,CLR,,0.00,WeatherDisplay:10.37,2013-06-23 21:49:00,
2013-06-23 17:54:00,90.7,71.8,21.38,West,281,5.0,5.0,54,0.00,CLR,,0.00,WeatherDisplay:10.37,2013-06-23 21:54:00,
2013-06-23 17:59:00,90.4,70.9,21.38,West,277,5.0,5.0,53,0.00,CLR,,0.00,WeatherDisplay:10.37,2013-06-23 21:59:00,
2013-06-23 18:04:00,90.1,71.8,21.38,WNW,290,6.0,6.0,55,0.00,CLR,,0.00,WeatherDisplay:10.37,2013-06-23 22:04:00,
2013-06-23 18:09:00,89.6,71.8,21.38,West,277,3.5,3.5,56,0.00,CLR,,0.00,WeatherDisplay:10.37,2013-06-23 22:09:00,
2013-06-23 18:14:00,89.3,71.5,21.38,West,281,6.9,6.9,56,0.00,CLR,,0.00,WeatherDisplay:10.37,2013-06-23 22:14:00,
2013-06-23 18:19:00,89.3,71.5,21.38,West,277,3.5,0.0,56,0.00,CLR,,0.00,WeatherDisplay:10.37,2013-06-23 22:19:00,
2013-06-23 18:24:00,88.9,71.7,21.38,West,260,5.0,5.0,57,0.00,CLR,,0.00,WeatherDisplay:10.37,2013-06-23 22:24:00,
2013-06-23 18:29:00,88.8,72.1,21.38,West,275,0.0,0.0,58,0.00,CLR,,0.00,WeatherDisplay:10.37,2013-06-23 22:29:00,
2013-06-23 18:34:00,88.6,72.9,21.38,West,279,0.0,0.0,60,0.00,CLR,,0.00,WeatherDisplay:10.37,2013-06-23 22:34:00,
2013-06-23 18:39:00,88.4,72.2,21.38,West,279,0.0,0.0,59,0.00,CLR,,0.00,WeatherDisplay:10.37,2013-06-23 22:39:00,
2013-06-23 18:44:00,88.1,72.5,21.38,West,279,0.0,0.0,60,0.00,CLR,,0.00,WeatherDisplay:10.37,2013-06-23 22:44:00,
2013-06-23 18:49:00,87.8,72.2,21.38,West,279,0.0,0.0,60,0.00,CLR,,0.00,WeatherDisplay:10.37,2013-06-23 22:49:00,
2013-06-23 18:54:00,87.7,72.6,21.38,West,279,0.0,0.0,61,0.00,CLR,,0.00,WeatherDisplay:10.37,2013-06-23 22:54:00,
2013-06-23 18:59:00,87.5,72.9,21.38,West,279,0.0,0.0,62,0.00,CLR,,0.00,WeatherDisplay:10.37,2013-06-23 22:59:00,
2013-06-23 19:04:00,87.5,72.9,21.38,West,279,0.0,0.1,62,0.00,CLR,,0.00,WeatherDisplay:10.37,2013-06-23 23:04:00,
2013-06-23 19:09:00,87.3,72.7,21.38,West,279,0.0,0.0,62,0.00,CLR,,0.00,WeatherDisplay:10.37,2013-06-23 23:09:00,
2013-06-23 19:14:00,87.1,73.0,21.38,West,279,0.0,0.0,63,0.00,CLR,,0.00,WeatherDisplay:10.37,2013-06-23 23:14:00,
2013-06-23 19:19:00,86.9,72.8,21.38,West,279,0.0,0.0,63,0.00,CLR,,0.00,WeatherDisplay:10.37,2013-06-23 23:19:00,
2013-06-23 19:24:00,86.6,72.5,21.38,NW,311,0.0,0.0,63,0.00,CLR,,0.00,WeatherDisplay:10.37,2013-06-23 23:24:00,
2013-06-23 19:29:00,86.2,71.2,21.38,NW,311,1.2,1.2,61,0.00,CLR,,0.00,WeatherDisplay:10.37,2013-06-23 23:29:00,
2013-06-23 19:34:00,85.8,71.7,21.38,NW,311,0.0,0.0,63,0.00,CLR,,0.00,WeatherDisplay:10.37,2013-06-23 23:34:00,
2013-06-23 19:39:00,85.5,71.9,21.38,NW,311,3.5,3.5,64,0.00,CLR,,0.00,WeatherDisplay:10.37,2013-06-23 23:39:00,
2013-06-23 19:44:00,85.2,72.1,21.38,NW,311,1.2,0.0,65,0.00,CLR,,0.00,WeatherDisplay:10.37,2013-06-23 23:44:00,
2013-06-23 19:49:00,84.9,71.8,21.38,NW,311,3.5,3.5,65,0.00,CLR,,0.00,WeatherDisplay:10.37,2013-06-23 23:49:00,
2013-06-23 19:54:00,84.6,72.0,21.38,NW,311,0.0,0.0,66,0.00,CLR,,0.00,WeatherDisplay:10.37,2013-06-23 23:54:00,
2013-06-23 19:59:00,84.4,71.8,21.38,NW,310,0.0,0.0,66,0.00,CLR,,0.00,WeatherDisplay:10.37,2013-06-23 23:59:00,
2013-06-23 20:04:00,84.1,72.0,21.38,NW,311,0.0,0.0,67,0.00,CLR,,0.00,WeatherDisplay:10.37,2013-06-24 00:04:00,
2013-06-23 20:09:00,83.9,72.2,21.38,NW,311,0.0,0.0,68,0.00,CLR,,0.00,WeatherDisplay:10.37,2013-06-24 00:09:00,
2013-06-23 20:15:00,83.6,72.3,21.38,NW,311,0.0,0.0,69,0.00,CLR,,0.00,WeatherDisplay:10.37,2013-06-24 00:15:00,
2013-06-23 20:20:00,83.3,72.1,21.38,NW,311,0.0,0.0,69,0.00,CLR,,0.00,WeatherDisplay:10.37,2013-06-24 00:20:00,
2013-06-23 20:25:00,82.6,72.7,21.38,NW,310,0.0,0.0,72,0.00,CLR,,0.00,WeatherDisplay:10.37,2013-06-24 00:25:00,
2013-06-23 20:30:00,81.5,72.8,21.38,NW,311,0.0,0.0,75,0.00,CLR,,0.00,WeatherDisplay:10.37,2013-06-24 00:30:00,
2013-06-23 20:35:00,80.8,72.9,21.38,NW,310,0.0,0.0,77,0.00,CLR,,0.00,WeatherDisplay:10.37,2013-06-24 00:35:00,
2013-06-23 20:40:00,80.3,72.4,21.38,NW,311,0.0,0.0,77,0.00,CLR,,0.00,WeatherDisplay:10.37,2013-06-24 00:40:00,
2013-06-23 20:45:00,80.0,72.1,21.38,NW,311,0.0,0.0,77,0.00,CLR,,0.00,WeatherDisplay:10.37,2013-06-24 00:45:00,
2013-06-23 20:50:00,79.7,72.2,21.38,NW,311,0.0,0.0,78,0.00,CLR,,0.00,WeatherDisplay:10.37,2013-06-24 00:50:00,
2013-06-23 20:55:00,79.0,71.9,21.38,NW,311,0.0,0.0,79,0.00,CLR,,0.00,WeatherDisplay:10.37,2013-06-24 00:55:00,
2013-06-23 21:00:00,78.6,71.9,21.38,NW,311,0.0,0.0,80,0.00,CLR,,0.00,WeatherDisplay:10.37,2013-06-24 01:00:00,
2013-06-23 21:05:00,78.1,71.8,21.38,NW,311,0.0,0.0,81,0.00,CLR,,0.00,WeatherDisplay:10.37,2013-06-24 01:05:00,
2013-06-23 21:10:00,77.6,71.7,21.38,NW,311,0.0,0.0,82,0.00,CLR,,0.00,WeatherDisplay:10.37,2013-06-24 01:10:00,
2013-06-23 21:15:00,77.3,71.4,21.38,NW,311,0.0,0.0,82,0.00,CLR,,0.00,WeatherDisplay:10.37,2013-06-24 01:15:00,
2013-06-23 21:20:00,77.1,71.5,21.38,NW,311,0.0,0.0,83,0.00,CLR,,0.00,WeatherDisplay:10.37,2013-06-24 01:20:00,
2013-06-23 21:25:00,76.9,71.3,21.38,NW,311,0.0,0.0,83,0.00,CLR,,0.00,WeatherDisplay:10.37,2013-06-24 01:25:00,
2013-06-23 21:30:00,76.7,71.1,21.38,NW,311,0.0,0.0,83,0.00,CLR,,0.00,WeatherDisplay:10.37,2013-06-24 01:30:00,
2013-06-23 21:35:00,76.5,70.9,21.38,NW,311,0.0,0.0,83,0.00,CLR,,0.00,WeatherDisplay:10.37,2013-06-24 01:35:00,
2013-06-23 21:40:00,76.3,70.8,31.40,NW,311,0.0,0.0,83,0.00,CLR,,0.00,WeatherDisplay:10.37,2013-06-24 01:40:00,
2013-06-23 21:45:00,76.0,70.5,21.38,NW,311,0.0,0.0,83,0.00,CLR,,0.00,WeatherDisplay:10.37,2013-06-24 01:45:00,
2013-06-23 21:50:00,75.3,70.1,21.38,NW,310,0.0,0.0,84,0.00,CLR,,0.00,WeatherDisplay:10.37,2013-06-24 01:50:00,
2013-06-23 21:55:00,74.9,70.1,21.38,NW,311,0.0,0.0,85,0.00,CLR,,0.00,WeatherDisplay:10.37,2013-06-24 01:55:00,
2013-06-23 22:00:00,74.7,69.9,21.38,NW,311,0.0,0.0,85,0.00,CLR,,0.00,WeatherDisplay:10.37,2013-06-24 02:00:00,
2013-06-23 22:05:00,74.5,70.0,21.38,NW,311,0.0,0.0,86,0.00,CLR,,0.00,WeatherDisplay:10.37,2013-06-24 02:05:00,
2013-06-23 22:10:00,74.4,69.9,21.38,NW,310,0.0,0.0,86,0.00,CLR,,0.00,WeatherDisplay:10.37,2013-06-24 02:10:00,
2013-06-23 22:15:00,74.1,70.0,21.38,NW,311,0.0,0.0,87,0.00,CLR,,0.00,WeatherDisplay:10.37,2013-06-24 02:15:00,
2013-06-23 22:20:00,73.9,70.1,21.38,NW,310,0.0,0.0,88,0.00,CLR,,0.00,WeatherDisplay:10.37,2013-06-24 02:20:00,
2013-06-23 22:25:00,73.7,69.9,21.38,NW,311,0.0,0.1,88,0.00,CLR,,0.00,WeatherDisplay:10.37,2013-06-24 02:25:00,
2013-06-23 22:30:00,73.5,70.1,21.38,NW,311,0.0,0.0,89,0.00,CLR,,0.00,WeatherDisplay:10.37,2013-06-24 02:30:00,
2013-06-23 22:35:00,73.2,69.8,21.38,NW,311,0.0,0.0,89,0.00,CLR,,0.00,WeatherDisplay:10.37,2013-06-24 02:35:00,
2013-06-23 22:40:00,73.1,69.7,21.38,NW,310,0.0,0.0,89,0.00,CLR,,0.00,WeatherDisplay:10.37,2013-06-24 02:40:00,
2013-06-23 22:45:00,73.0,69.6,21.38,NW,311,0.0,0.0,89,0.00,CLR,,0.00,WeatherDisplay:10.37,2013-06-24 02:45:00,
2013-06-23 22:50:00,72.8,69.7,21.38,NW,310,0.0,0.0,90,0.00,CLR,,0.00,WeatherDisplay:10.37,2013-06-24 02:50:00,
2013-06-23 22:55:00,72.6,69.5,21.38,NW,310,0.0,0.0,90,0.00,CLR,,0.00,WeatherDisplay:10.37,2013-06-24 02:55:00,
2013-06-23 23:00:00,72.5,69.4,21.38,NW,311,0.0,0.0,90,0.00,CLR,,0.00,WeatherDisplay:10.37,2013-06-24 03:00:00,
2013-06-23 23:05:00,72.3,69.2,21.38,NW,310,0.0,0.0,90,0.00,CLR,,0.00,WeatherDisplay:10.37,2013-06-24 03:05:00,
2013-06-23 23:10:00,72.1,69.0,21.38,NW,311,0.0,0.0,90,0.00,CLR,,0.00,WeatherDisplay:10.37,2013-06-24 03:10:00,
2013-06-23 23:15:00,72.0,68.9,21.38,NW,310,0.0,0.0,90,0.00,CLR,,0.00,WeatherDisplay:10.37,2013-06-24 03:15:00,
2013-06-23 23:20:00,71.8,68.7,21.38,NW,310,0.0,0.0,90,0.00,CLR,,0.00,WeatherDisplay:10.37,2013-06-24 03:20:00,
2013-06-23 23:25:00,71.6,68.5,21.38,NW,311,1.2,0.0,90,0.00,CLR,,0.00,WeatherDisplay:10.37,2013-06-24 03:25:00,
2013-06-23 23:30:00,71.4,68.6,21.38,NW,310,0.0,0.0,91,0.00,CLR,,0.00,WeatherDisplay:10.37,2013-06-24 03:30:00,
2013-06-23 23:35:00,71.3,68.5,21.38,NW,311,0.0,0.0,91,0.00,CLR,,0.00,WeatherDisplay:10.37,2013-06-24 03:35:00,
2013-06-23 23:40:00,71.2,68.4,21.38,NW,310,0.0,0.0,91,0.00,CLR,,0.00,WeatherDisplay:10.37,2013-06-24 03:40:00,
2013-06-23 23:45:00,71.2,68.4,21.38,NW,310,0.0,0.0,91,0.00,CLR,,0.00,WeatherDisplay:10.37,2013-06-24 03:45:00,
2013-06-23 23:50:00,71.1,68.3,21.38,NW,310,0.0,0.0,91,0.00,CLR,,0.00,WeatherDisplay:10.37,2013-06-24 03:50:00,
2013-06-23 23:55:00,70.9,68.1,21.38,NW,311,0.0,0.0,91,0.00,CLR,,0.00,WeatherDisplay:10.37,2013-06-24 03:55:00,